Location: Little Chesterford
(52.0500°N, 0.1833°E)
Time: 12:38:31
(UTC+00:00)

Cosmos 1943 Rocket - Pass Details

Date: 26 September 2023
Orbit: 812 x 843 km, 71.0° (Epoch: 29 November)

Event Time Altitude Azimuth Distance (km) Brightness Sun altitude
Rises 19:54:33 0° 330° (NNW) 3,414 6.3 -19.6°
Reaches altitude 10° 19:57:04 10° 334° (NNW) 2,475 5.3 -20.0°
Maximum altitude 20:02:41 59° 54° (NE) 976 2.3 -20.7°
Enters shadow 20:04:18 43° 108° (ESE) 1,177 2.4 -21.0°
